PSLV R/B (43739 NORAD) Tracking and Keplerian Element Data

This shows tracking and keplerian element data for the satellite.

Feedback or suggestion? Click here.




ElementValue
Catalog43739
NamePSLV R/B
Epoch Orbit454
Epoch Day362.76692774
Epoch Year2018
RAAN68.0178
Inclination97.422
Eccentricity0.0051326
Argument of Perigee297.8301
Mean Anonmoly61.7748
Mean Motion15.37968249
Decay Rate1.314E-05
L11 43739U 18096W 18362.76692774 .00001314 00000-0 36022-4 0 9994
L22 43739 97.4220 68.0178 0051326 297.8301 61.7748 15.37968249 4549

Live tracking and technical data element details for PSLV R/B (NORAD 43739). PSLV R/B can be tracked NOW for your location showing map with azimuth and elevation plus other details from your city location.

Track the satellite on the map from your city or location and see movement details for azimuth, elevation, latitude, longitude, range, height, and movement on the map or in text.







IsCatalogInMostPopularTable: catalog: 43739, numindb: 32
Update: records affected: 1



GetName: 43739 PSLV R/B

Hit Count: updated at: Fri, 18 Jan 2019 22:40:04 GMT